Regional Weather Roundup
Issued by NWS

Home | Current Version | Previous Version | Graphics & Text | Print | Product List | Glossary On
Versions: 1 2 3 4 5 6 7 8 9 10 11 12 13 14 15 16 17 18 19 20 21 22 23 24 25 26 27 28 29 30 31 32 33 34 35 36 37 38 39 40 41 42 43 44 45 46 47 48 49 50
000
ASUS43 KDMX 272007
RWRIA

WEATHER ROUNDUP FOR IOWA
NATIONAL WEATHER SERVICE DES MOINES IA
200 PM CST FRI FEB 27 2015

NOTE: "FAIR" INDICATES FEW OR NO CLOUDS BELOW 12,000 FEET WITH NO
SIGNIFICANT WEATHER AND/OR OBSTRUCTIONS TO VISIBILITY.

* - THESE STATIONS ARE NOT NWS STATIONS...THUS NOT UNDER NWS
QUALITY CONTROL.  THEY ALSO DO NOT REPORT WEATHER SUCH
AS PRECIPITATION OR FOG.

IAZ001>003-012>014-020>022-031>034-043>046-272100-
   NORTHWEST IOWA

CITY           SKY/WX    TMP DP  RH WIND       PRES   REMARKS
CARROLL *      SUNNY      9  -4  56 W3        30.56F
CHEROKEE *     SUNNY     10   0  61 W5        30.54F WCI   2
DENISON *      SUNNY      9  -4  56 SW5       30.53F WCI   0
LE MARS *      SUNNY     12   1  62 S6        30.53F WCI   3
ORANGE CITY *  SUNNY     12   0  57 SW6       30.50F WCI   3
SHELDON *      SUNNY     10   0  61 W3        30.49F
SPENCER        PTSUNNY   11   2  67 SW5       30.52F WCI   3
STORM LAKE *   SUNNY      7  -2  66 SW6       30.52F WCI  -3
$$

IAZ055>058-069>071-079>083-090>094-272100-
   SOUTHWEST IOWA

CITY           SKY/WX    TMP DP  RH WIND       PRES   REMARKS
ATLANTIC *     SUNNY     10   0  61 NE5       30.57F WCI   2
AUDUBON *      SUNNY     12   0  57 CALM      30.55F
CLARINDA *     SUNNY     18   0  45 SW5       30.58F WCI  11
COUNCIL BLFS * MOSUNNY   16   5  62 NE6       30.53F WCI   7
CRESTON *      SUNNY     14   0  52 NE5       30.55F WCI   6
HARLAN  *      SUNNY     10   0  61 CALM      30.59F
LAMONI         SUNNY     11   0  61 CALM      30.57F
RED OAK *      MOSUNNY   14   1  57 CALM      30.57F
SHENANDOAH *   SUNNY     18   1  49 VRB3      30.58F
$$

IAZ047>049-059>061-072>074-084-272100-
   CENTRAL IOWA

CITY           SKY/WX    TMP DP  RH WIND       PRES   REMARKS
AMES           SUNNY      8   0  69 SW6       30.60F WCI  -2
ANKENY *       SUNNY     10  -4  52 CALM      30.61F
CHARITON *     PTSUNNY   12   0  57 VRB5      30.59F WCI   4
DES MOINES     MOSUNNY   12  -2  53 W5        30.60F WCI   4
GRINNELL*      SUNNY      7  -4  61 NW3       30.60F
KNOXVILLE *    SUNNY      9  -4  56 CALM      30.60F
MARSHALLTOWN   SUNNY      6  -2  69 W3        30.59F
PELLA *        SUNNY     14   3  62 NW3       30.63F
PERRY *          N/A     12   3  67 CALM      30.59F
$$

IAZ004>006-015-016-023>025-035-036-272100-
   NORTH CENTRAL IOWA

CITY           SKY/WX    TMP DP  RH WIND       PRES   REMARKS
ALGONA *       MOSUNNY    9   0  66 W6        30.54F WCI  -1
CLARION *      MOSUNNY    7   0  72 SW7       30.57S WCI  -5
ESTHERVILLE    SUNNY      9   1  70 CALM      30.51F
FORT DODGE *   SUNNY      9   0  66 SW6       30.57F WCI  -1
MASON CITY     SUNNY      6  -2  69 W9        30.56F WCI  -8
FOREST CITY *  SUNNY     10   0  61 W5        30.54F WCI   2
IOWA FALLS *     N/A      9   0  66 W5        30.58F HAZE    WCI   0
$$

IAZ007>011-017>019-026>030-037>042-050>054-066-272100-
   NORTHEAST IOWA

CITY           SKY/WX    TMP DP  RH WIND       PRES   REMARKS
CEDAR RAPIDS   SUNNY      5  -2  72 W6        30.60F WCI  -6
CHARLES CITY * SUNNY      5  -4  66 W5        30.57F WCI  -4
CLINTON *      SUNNY      9  -2  61 W6        30.65S WCI  -1
DECORAH *      SUNNY      7  -8  51 VRB7      30.54S WCI  -5
DUBUQUE        SUNNY      8  -4  58 SW9       30.57F WCI  -5
MONTICELLO *   SUNNY      9  -6  52 W7        30.61S WCI  -3
OELWEIN *      SUNNY      5  -6  61 W7        30.58F WCI  -7
WATERLOO       SUNNY      6  -4  63 W8        30.60F WCI  -7
$$

IAZ064-065-067-068-078-272100-
   EAST CENTRAL IOWA

CITY           SKY/WX    TMP DP  RH WIND       PRES   REMARKS
DAVENPORT      SUNNY      6  -3  66 W7        30.63F WCI  -6
IOWA CITY      SUNNY      7  -3  64 W7        30.65F WCI  -5
MT. PLEASANT * SUNNY     10  -2  56 NE3       30.64S
MUSCATINE *    SUNNY     10  -2  56 NW5       30.66F WCI   2
QUAD CITIES    SUNNY     13  -5  44 W3        30.62F
$$

IAZ062-063-075>077-085>089-095>099-272100-
   SOUTHEAST IOWA

CITY           SKY/WX    TMP DP  RH WIND       PRES   REMARKS
BURLINGTON     SUNNY     11  -4  51 CALM      30.63F
FAIRFIELD *    SUNNY      7  -6  56 CALM      30.63F
FORT MADISON * SUNNY     10   0  61 N3        30.64F
KEOKUK *       SUNNY     12  -2  52 SW5       30.63F WCI   4
OSKALOOSA *      N/A      9   0  66 CALM      30.63S
CENTERVILLE *  SUNNY     12   1  62 SW7       30.61F WCI   2
OTTUMWA        SUNNY     10   0  63 N3        30.62F
WASHINGTON *   SUNNY      9   0  66 NW5       30.63F WCI   0
$$

ABBREVIATIONS USED IN REMARKS
   TC - TEMPERATURES IN CELSIUS
  WCI - WIND CHILL INDEX
   HX - HEAT INDEX
  VSB - VISIBILITY
$$




USA.gov is the U.S. government's official web portal to all federal, state and local government web resources and services.